GW7261 Weather Reports


time (UTC)temp
C
wind
direction
speed
KPH
gust
KPH
rain 1hr
cm
rain 24hr
cm
rain mn
cm
humidity
%
barometer
mb
20260509162936 20 225 4.8 8.0 0.00 0.00 0.00 56 1003.6
20260509162335 20 270 12.9 27.4 0.00 0.00 0.00 58 1003.6
20260509161735 20 225 11.3 17.7 0.00 0.00 0.00 55 1003.6
20260509161135 19 225 17.7 27.4 0.00 0.00 0.00 60 1003.6
20260509160535 19 225 12.9 25.7 0.00 0.00 0.00 60 1003.6
20260509155935 18 270 12.9 20.9 0.00 0.00 0.00 61 1003.6
20260509155335 18 225 16.1 29.0 0.00 0.00 0.00 64 1003.6
20260509154134 18 225 16.1 20.9 0.00 0.00 0.00 63 1003.7
20260509153534 18 225 11.3 16.1 0.00 0.00 0.00 65 1003.7
20260509152334 17 225 12.9 25.7 0.00 0.00 0.00 66 1003.6
20260509151734 17 225 16.1 22.5 0.00 0.00 0.00 69 1003.7
20260509151134 16 225 16.1 25.7 0.00 0.00 0.00 71 1003.7
20260509150533 16 225 22.5 33.8 0.00 0.00 0.00 70 1003.7
20260509145933 16 270 22.5 27.4 0.00 0.00 0.00 74 1003.8
20260509144733 16 225 16.1 22.5 0.00 0.00 0.00 75 1003.7
20260509144133 16 270 19.3 29.0 0.00 0.00 0.00 74 1003.8
20260509143533 16 225 17.7 24.1 0.00 0.00 0.00 74 1003.8
20260509142932 15 225 19.3 32.2 0.00 0.00 0.00 74 1003.8
20260509142332 15 225 22.5 37.0 0.00 0.00 0.00 74 1003.6
20260509141732 15 225 24.1 33.8 0.00 0.00 0.00 75 1003.6
20260509141132 15 225 20.9 32.2 0.00 0.00 0.00 77 1003.6
20260509140532 15 225 19.3 33.8 0.00 0.00 0.00 78 1003.7
20260509135932 15 270 24.1 38.6 0.00 0.00 0.00 78 1003.7
20260509135331 15 225 16.1 27.4 0.00 0.00 0.00 78 1003.6
20260509134731 15 225 17.7 25.7 0.00 0.00 0.00 79 1003.4
20260509134131 15 225 17.7 22.5 0.00 0.00 0.00 78 1003.4
20260509133531 15 225 16.1 27.4 0.00 0.00 0.00 80 1003.4
20260509132931 14 225 17.7 30.6 0.00 0.00 0.00 82 1003.5
20260509131731 13 225 22.5 37.0 0.00 0.00 0.00 83 1003.9
20260509131131 13 225 12.9 19.3 0.00 0.00 0.00 85 1003.7
20260509130530 13 225 22.5 35.4 0.00 0.00 0.00 85 1003.7
20260509125930 13 225 19.3 33.8 0.00 0.00 0.00 87 1003.6
20260509125330 13 225 12.9 16.1 0.00 0.00 0.00 88 1003.7
20260509124730 12 225 17.7 24.1 0.00 0.00 0.00 89 1003.6
20260509123529 12 225 17.7 27.4 0.00 0.00 0.00 91 1003.6
20260509122929 12 225 17.7 29.0 0.00 0.00 0.00 92 1003.6
20260509121129 11 225 14.5 22.5 0.00 0.00 0.00 95 1003.5
20260509120528 11 225 16.1 24.1 0.00 0.00 0.00 96 1003.6
20260509115928 11 225 17.7 27.4 0.00 0.00 0.00 97 1003.5
20260509115328 11 225 16.1 22.5 0.00 0.00 0.00 98 1003.6
20260509114728 11 225 17.7 29.0 0.00 0.00 0.00 98 1003.5
20260509114128 11 225 12.9 17.7 0.00 0.00 0.00 99 1003.4
20260509113528 11 180 16.1 20.9 0.00 0.00 0.00 99 1003.5
20260509112928 11 225 12.9 20.9 0.00 0.00 0.00 99 1003.3
20260509112328 11 225 20.9 32.2 0.00 0.00 0.00 99 1003.0
20260509111127 10 225 12.9 17.7 0.00 0.00 0.00 99 1003.3
20260509110527 10 225 14.5 19.3 0.00 0.00 0.00 99 1003.2
20260509105927 11 225 11.3 16.1 0.00 0.00 0.00 99 1003.0
20260509105327 11 225 14.5 25.7 0.00 0.00 0.00 99 1003.0
20260509104726 11 225 12.9 19.3 0.00 0.00 0.00 99 1003.0
20260509104126 11 225 12.9 20.9 0.00 0.00 0.00 99 1003.0
20260509103526 11 225 16.1 27.4 0.00 0.00 0.00 99 1002.9
20260509102926 11 225 17.7 29.0 0.00 0.00 0.00 98 1002.8
20260509102326 11 225 12.9 22.5 0.00 0.00 0.00 98 1002.8
20260509101726 11 225 12.9 22.5 0.00 0.00 0.00 98 1002.9
20260509101126 11 225 11.3 16.1 0.00 0.00 0.00 98 1002.9
20260509100525 10 180 8.0 14.5 0.00 0.00 0.00 98 1003.0
20260509095925 10 225 6.4 9.7 0.00 0.00 0.00 98 1003.0
20260509095325 10 225 8.0 16.1 0.00 0.00 0.00 98 1003.3
20260509094725 10 225 6.4 12.9 0.00 0.00 0.00 98 1003.2
20260509094125 10 225 11.3 16.1 0.00 0.00 0.00 98 1003.3
20260509093525 10 225 9.7 17.7 0.00 0.00 0.00 98 1003.3
20260509092924 10 225 9.7 12.9 0.00 0.00 0.00 98 1003.4
20260509092324 10 225 12.9 22.5 0.00 0.00 0.00 98 1003.5
20260509091724 10 270 9.7 16.1 0.00 0.00 0.00 98 1003.6
20260509090524 10 225 9.7 16.1 0.00 0.00 0.00 98 1003.4
20260509085324 10 225 11.3 16.1 0.00 0.00 0.00 98 1003.7
20260509084723 10 225 9.7 19.3 0.00 0.00 0.00 98 1003.7
20260509084123 10 225 12.9 19.3 0.00 0.00 0.00 98 1003.8
20260509082923 10 225 9.7 14.5 0.00 0.00 0.00 97 1003.8
20260509082323 10 225 11.3 20.9 0.00 0.00 0.00 97 1003.8
20260509081722 10 225 14.5 19.3 0.00 0.00 0.00 97 1003.8
20260509081123 10 225 11.3 17.7 0.00 0.00 0.00 96 1003.7
20260509080522 10 225 14.5 20.9 0.00 0.00 0.00 96 1003.7
20260509075922 10 225 9.7 17.7 0.00 0.00 0.00 96 1003.6
20260509075322 10 225 8.0 11.3 0.00 0.00 0.00 95 1003.7
20260509074722 10 225 8.0 12.9 0.00 0.00 0.00 95 1003.8
20260509074121 11 225 9.7 14.5 0.00 0.00 0.00 94 1003.9
20260509072921 11 225 11.3 19.3 0.00 0.00 0.00 94 1003.8
20260509071121 11 225 9.7 17.7 0.00 0.00 0.00 92 1004.2
20260509070520 11 225 11.3 16.1 0.00 0.00 0.00 92 1004.3
20260509064720 11 225 9.7 14.5 0.00 0.00 0.00 91 1004.5
20260509064120 11 225 12.9 20.9 0.00 0.00 0.00 91 1004.6
20260509063520 11 225 9.7 14.5 0.00 0.00 0.00 91 1004.6
20260509062920 11 270 16.1 20.9 0.00 0.00 0.00 90 1004.6
20260509062320 11 225 12.9 20.9 0.00 0.00 0.00 90 1004.7
20260509061119 12 225 12.9 22.5 0.00 0.00 0.00 89 1004.8
20260509060519 12 225 12.9 17.7 0.00 0.00 0.00 89 1004.8
20260509055919 12 225 16.1 24.1 0.00 0.00 0.00 89 1004.9
20260509055319 12 225 14.5 29.0 0.00 0.00 0.00 88 1005.0
20260509054719 12 225 12.9 17.7 0.00 0.00 0.00 88 1005.0
20260509054118 12 225 14.5 20.9 0.00 0.00 0.00 88 1005.0
20260509052918 12 225 14.5 19.3 0.00 0.00 0.00 87 1005.1
20260509052318 12 225 14.5 29.0 0.00 0.00 0.00 87 1005.1
20260509051118 12 225 11.3 14.5 0.00 0.00 0.00 86 1005.0
20260509050517 13 225 12.9 22.5 0.00 0.00 0.00 85 1004.9
20260509045917 13 225 12.9 20.9 0.00 0.00 0.00 85 1004.9
20260509045317 13 225 16.1 25.7 0.00 0.00 0.00 84 1005.0
20260509044717 13 225 14.5 19.3 0.00 0.00 0.00 83 1005.0
20260509044117 13 225 19.3 29.0 0.00 0.00 0.00 83 1004.9
20260509043517 13 225 14.5 25.7 0.00 0.00 0.00 82 1004.9
20260509042917 13 225 12.9 16.1 0.00 0.00 0.00 81 1004.9
20260509042316 13 225 14.5 25.7 0.00 0.00 0.00 80 1005.1
20260509041716 13 225 11.3 16.1 0.00 0.00 0.00 79 1005.0
20260509041116 13 225 9.7 20.9 0.00 0.00 0.00 77 1005.1
20260509040516 13 225 12.9 19.3 0.00 0.00 0.00 76 1005.1
20260509035916 13 225 12.9 19.3 0.00 0.00 0.00 75 1005.2
20260509035316 13 225 9.7 14.5 0.00 0.00 0.00 74 1005.2
20260509034715 14 225 9.7 17.7 0.00 0.00 0.00 73 1005.3
20260509034115 14 225 12.9 17.7 0.00 0.00 0.00 73 1005.2
20260509033515 14 225 11.3 20.9 0.00 0.00 0.00 73 1005.1
20260509032915 14 225 6.4 11.3 0.00 0.00 0.00 73 1005.1
20260509031715 15 225 9.7 17.7 0.00 0.00 0.00 72 1005.2
20260509031114 15 180 8.0 14.5 0.00 0.00 0.00 71 1005.2
20260509030514 15 225 6.4 14.5 0.00 0.00 0.00 70 1005.2
20260509025914 15 225 6.4 11.3 0.00 0.00 0.00 69 1005.2
20260509025314 15 225 9.7 20.9 0.00 0.00 0.00 68 1005.2
20260509024714 15 225 12.9 22.5 0.00 0.00 0.00 66 1005.2
20260509024114 15 225 12.9 22.5 0.00 0.00 0.00 64 1005.3
20260509022913 15 180 4.8 9.7 0.00 0.00 0.00 60 1005.2
20260509022313 15 225 8.0 16.1 0.00 0.00 0.00 59 1005.2
20260509021713 15 225 4.8 9.7 0.00 0.00 0.00 60 1005.1
20260509021113 15 225 0.0 1.6 0.00 0.00 0.00 60 1005.1
20260509020512 15 225 0.0 1.6 0.00 0.00 0.00 60 1005.0
20260509015912 15 225 0.0 1.6 0.00 0.00 0.00 57 1005.0
20260509015312 15 225 1.6 4.8 0.00 0.00 0.00 57 1005.0
20260509014112 16 225 3.2 6.4 0.00 0.00 0.00 55 1004.9
20260509013512 16 225 1.6 4.8 0.00 0.00 0.00 55 1004.9
20260509012912 16 225 6.4 9.7 0.00 0.00 0.00 54 1004.9
20260509012311 16 225 1.6 3.2 0.00 0.00 0.00 53 1004.9
20260509011712 16 225 6.4 12.9 0.00 0.00 0.00 53 1004.9
20260509011111 17 225 4.8 9.7 0.00 0.00 0.00 52 1004.9
20260509010511 17 225 6.4 11.3 0.00 0.00 0.00 52 1004.7
20260509005911 17 225 11.3 16.1 0.00 0.00 0.00 51 1004.8
20260509005311 17 225 8.0 14.5 0.00 0.00 0.00 51 1004.8
20260509004711 17 225 12.9 19.3 0.00 0.00 0.00 50 1004.8
20260509004110 17 225 14.5 22.5 0.00 0.00 0.00 48 1004.7
20260509002910 18 180 9.7 17.7 0.00 0.00 0.00 49 1004.7
20260509002310 18 225 6.4 9.7 0.00 0.00 0.00 49 1004.8
20260509001710 18 225 6.4 9.7 0.00 0.00 0.00 48 1004.9
20260509000509 18 225 6.4 9.7 0.00 0.00 0.00 47 1004.9
20260508235909 18 225 14.5 24.1 0.00 0.00 0.00 47 1004.9
20260508235309 18 225 9.7 16.1 0.00 0.00 0.00 47 1004.9
20260508234709 18 225 11.3 27.4 0.00 0.00 0.00 46 1004.9
20260508234109 19 225 11.3 17.7 0.00 0.00 0.00 48 1005.0
20260508233509 19 225 16.1 22.5 0.00 0.00 0.00 44 1005.0
20260508232908 19 225 8.0 11.3 0.00 0.00 0.00 46 1005.0
20260508231108 21 225 8.0 14.5 0.00 0.00 0.00 43 1004.9
20260508225908 21 180 12.9 22.5 0.00 0.00 0.00 43 1005.0
20260508225307 20 225 12.9 20.9 0.00 0.00 0.00 44 1005.0
20260508224707 21 225 12.9 22.5 0.00 0.00 0.00 43 1004.9
20260508224107 21 225 12.9 17.7 0.00 0.00 0.00 42 1005.2
20260508223507 22 225 8.0 12.9 0.00 0.00 0.00 40 1005.1
20260508222907 19 270 12.9 19.3 0.00 0.00 0.00 47 1005.3
20260508222307 19 225 19.3 27.4 0.00 0.00 0.00 45 1005.3
20260508221706 22 270 8.0 11.3 0.00 0.00 0.00 39 1005.2
20260508221106 22 180 4.8 8.0 0.00 0.00 0.00 39 1005.1
20260508220506 20 225 8.0 14.5 0.00 0.00 0.00 45 1005.3
20260508215906 21 225 12.9 24.1 0.00 0.00 0.00 42 1005.4
20260508215307 20 225 19.3 30.6 0.00 0.03 0.00 44 1005.3
20260508214706 20 225 17.7 33.8 0.00 0.05 0.00 42 1005.5
20260508214106 22 270 8.0 22.5 0.00 0.05 0.00 38 1005.4
20260508213505 23 270 12.9 20.9 0.00 0.05 0.00 38 1005.3
20260508212905 24 225 6.4 11.3 0.00 0.05 0.00 34 1005.2
20260508212306 22 225 6.4 11.3 0.00 0.05 0.00 37 1005.4
20260508211705 23 225 4.8 11.3 0.00 0.05 0.00 40 1005.2
20260508211105 20 180 9.7 16.1 0.00 0.05 0.00 41 1005.4
20260508210504 20 225 11.3 14.5 0.00 0.05 0.00 40 1005.5
20260508205905 19 225 14.5 22.5 0.00 0.05 0.00 43 1005.6
20260508205306 20 270 6.4 9.7 0.00 0.05 0.00 43 1005.5
20260508204704 20 225 9.7 17.7 0.00 0.05 0.00 40 1005.5
20260508204104 20 225 11.3 16.1 0.00 0.05 0.00 39 1005.6
20260508203504 22 225 17.7 24.1 0.00 0.05 0.00 36 1005.7
20260508202903 23 225 11.3 17.7 0.00 0.05 0.00 38 1005.7
20260508202306 22 225 1.6 4.8 0.00 0.05 0.00 39 1005.8
20260508201703 20 225 12.9 17.7 0.00 0.05 0.00 45 1006.1
20260508200503 25 225 3.2 8.0 0.00 0.05 0.00 35 1006.0
20260508195903 23 270 8.0 17.7 0.00 0.05 0.00 38 1006.2
20260508194102 21 225 3.2 4.8 0.00 0.05 0.00 40 1006.6
20260508193502 20 270 4.8 9.7 0.00 0.05 0.00 43 1006.8
20260508192902 21 315 1.6 4.8 0.00 0.05 0.00 42 1006.8
20260508192305 20 315 0.0 3.2 0.00 0.05 0.00 41 1006.9
20260508191702 19 225 8.0 16.1 0.00 0.05 0.00 47 1007.0
20260508191102 20 180 6.4 14.5 0.00 0.05 0.00 40 1007.0
20260508190501 20 225 6.4 11.3 0.00 0.05 0.00 42 1007.1
20260508185901 21 270 8.0 14.5 0.00 0.05 0.00 46 1007.1
20260508185301 20 270 8.0 14.5 0.00 0.05 0.00 45 1007.4
20260508184701 19 270 12.9 17.7 0.00 0.05 0.00 47 1007.4
20260508184101 20 225 11.3 17.7 0.00 0.05 0.00 49 1007.3
20260508183501 21 45 1.6 3.2 0.00 0.05 0.00 43 1007.5
20260508182300 20 225 9.7 17.7 0.00 0.05 0.00 47 1007.6
20260508181700 20 270 1.6 8.0 0.00 0.05 0.00 45 1007.7
20260508180500 18 180 9.7 17.7 0.00 0.05 0.00 51 1007.7
20260508175300 20 225 11.3 14.5 0.00 0.05 0.00 47 1008.0
20260508174659 20 270 6.4 9.7 0.00 0.05 0.00 51 1008.1
20260508174059 19 225 3.2 14.5 0.00 0.05 0.00 52 1008.2
20260508173459 18 225 8.0 12.9 0.00 0.05 0.00 54 1008.3
20260508172859 19 270 6.4 12.9 0.00 0.05 0.00 52 1008.4
20260508172258 20 270 3.2 6.4 0.00 0.05 0.00 55 1008.5
20260508171658 19 270 3.2 8.0 0.00 0.05 0.00 55 1008.6
20260508170458 17 90 6.4 12.9 0.00 0.05 0.00 57 1008.8
20260508165858 17 270 6.4 11.3 0.00 0.05 0.00 57 1008.9
20260508165258 17 270 12.9 20.9 0.00 0.05 0.00 58 1009.0
20260508164658 17 270 8.0 20.9 0.00 0.05 0.00 60 1009.0
20260508164057 17 225 14.5 22.5 0.00 0.05 0.00 60 1009.2
20260508163457 17 180 4.8 11.3 0.00 0.05 0.00 60 1009.2